Location: Miles
(41.4492°N, 81.6087°W)
Time: 07:24:09
(UTC+00:00)

Vanguard 1 Rocket - Pass Details

Date: 13 September 2024
Orbit: 650 x 4218 km, 34.3° (Epoch: 05 October)

Event Time Altitude Azimuth Distance (km) Brightness Sun altitude
Rises 15:04:49 0° 283° (WNW) 7,854 11.8 41.1°
Reaches altitude 10° 15:10:04 10° 279° (W) 7,102 11.7 41.8°
Maximum altitude 15:33:45 49° 214° (SW) 4,804 11.8 44.9°
Drops below altitude 10° 15:53:40 10° 147° (SSE) 6,043 12.6 47.1°
Sets 15:57:45 0° 141° (SE) 6,664 12.5 47.5°
